www.pogodaiklimat.ru

Погода и климат >> Архив погоды >> Соломоновы Острова >> Остров Таро


ПОГОДА на Острове Таро

  • Прогноз погоды на Острове Таро
  • Монитор погоды на Острове Таро

АРХИВ ПОГОДЫ на Острове Таро

Время (UTC), дата Ветер
(напр.,м/с)
 
Видим.   Явления Облачность Т
(С)
Тd
(С)
f
(%)
Тe
(С)
Тes
(С)
Комфортность P
(гПа)
Po
(гПа)
Тmin
(С)
Tmax
(С)
R
(мм)
R24
(мм)
S
(см)
18 12.06 В 6 20 км осадки на расстоянии 10/6 420 м
[Cb cap Ac As]
+26.5 +24.3 88 +37 +37 очень
душно
1009.0 1008.7
21 12.06 ЮВ 4 20 км осадки на расстоянии 10/4 420 м
[Cb cap Ac trans Cs]
+26.8 +25.0 90 +39 +39 очень
душно
1010.2 1009.9
00 13.06 ЮВ 5 25 км осадки на расстоянии 5/3 450 м
[Cb cap Ac trans Cs]
+29.0 +25.6 82 +43 +47 опасность
перегрева
1010.5 1010.2 48
03 13.06 В 5 15 км ливневой дождь {гроза} 10/10 420 м
[Cb cap]
+26.0 +25.3 96 +38 +38 очень
душно
1008.8 1008.5 25
06 13.06 ЮВ 2 25 км осадки на расстоянии {гроза, ливн. осадки} 8/3 420 м
[Cb cap Ac trans Cs]
+27.7 +24.5 83 +39 +40 очень
душно
1007.4 1007.1 1
09 13.06 ЮВ 5 25 км осадки на расстоянии 6/1 420 м
[Cb cap Ac trans Ci ing]
+26.0 +25.2 95 +37 +37 очень
душно
1009.0 1008.7
12 13.06 ЮВ 2 25 км осадки на расстоянии 9/1 420 м
[Cb cap Ac trans Cs]
+27.3 +25.7 91 +40 +40 очень
душно
1009.9 1009.6 +30.0
21 13.06 ЮВ 3 25 км осадки на расстоянии 8/1 420 м
[Cb cap Ac trans Cs]
+26.9 +24.1 85 +37 +38 очень
душно
1009.5 1009.2
00 14.06 ЮВ 4 25 км осадки на расстоянии 9/3 420 м
[Cb cap Ac trans Cs]
+29.0 +24.6 77 +41 +45 опасность
перегрева
1009.8 1009.5 26
03 14.06 ЮВ 5 25 км осадки на расстоянии 9/3 450 м
[Cb cap Cs]
+29.3 +25.3 79 +43 +44 опасность
перегрева
1007.5 1007.2
06 14.06 ЮВ 2 25 км осадки на расстоянии 9/5 420 м
[Cb cap Ac trans Cs]
+28.8 +24.9 79 +41 +42 опасность
перегрева
1007.1 1006.8
09 14.06 В 4 20 км осадки на расстоянии {ливн. осадки} 9/3 420 м
[Cb cap Ac trans Cs]
+27.7 +24.9 85 +40 +40 очень
душно
1009.4 1009.1 5
12 14.06 ЮВ 3 20 км мгла 1/1 500 м
[Cu med, cong]
+27.0 +23.7 82 +37 +37 очень
душно
1010.8 1010.5
18 14.06 ЮВ 5 20 км осадки на расстоянии 5/4 420 м
[Cb cap Cs]
+27.3 +24.2 83 +38 +38 очень
душно
1007.7 1007.4
21 14.06 ЮВ 4 20 км осадки на расстоянии 10/6 420 м
[Cb cap Ac As]
+27.5 +24.6 84 +39 +39 очень
душно
1009.9 1009.6
00 15.06 ЮВ 5 20 км осадки на расстоянии 10/6 450 м
[Cb cap Ac As]
+28.3 +24.5 80 +40 +41 очень
душно
1010.7 1010.4 5
03 15.06 Ю 4 20 км осадки на расстоянии 10/4 450 м
[Cb cap Ac As]
+28.8 +25.0 80 +42 +42 опасность
перегрева
1008.1 1007.8
06 15.06 ЮВ 4 20 км осадки на расстоянии 10/4 420 м
[Cb cap Ac As]
+28.1 +25.0 83 +40 +41 очень
душно
1008.0 1007.7
09 15.06 В 3 20 км осадки на расстоянии 10/3 420 м
[Cb cap Ac As Cs]
+27.3 +24.9 87 +39 +39 очень
душно
1009.6 1009.3
12 15.06 ЮВ 2 20 км осадки на расстоянии 10/3 420 м
[Cb cap Ac As]
+27.3 +24.9 87 +39 +39 очень
душно
1010.0 1009.7 +29.4
21 15.06 ЮВ 3 20 км осадки на расстоянии {морось} 10/4 420 м
[Cb cap Ac As]
+26.9 +24.6 87 +38 +38 очень
душно
1010.3 1010.0 0.0
00 16.06 ЮВ 2 20 км осадки на расстоянии {ливн. осадки} 10/5 420 м
[Cb cap Ac As]
+24.4 +23.2 93 +33 +35 очень
душно
1011.3 1011.0 2 2
03 16.06 ЮВ 2 20 км слаб. морось 10/3 420 м
[Cb cap Ac As]
+25.8 +24.4 92 +36 +36 очень
душно
1009.2 1008.9 3
06 16.06 ЮВ 3 20 км осадки на расстоянии {морось} 10/5 420 м
[Cb cap Ac As]
+26.4 +25.5 95 +39 +39 очень
душно
1006.8 1006.5 0.4
09 16.06 В 3 20 км осадки на расстоянии {морось} 10/5 420 м
[Cb cap As op]
+26.1 +25.0 94 +37 +37 очень
душно
1009.3 1009.0 1
21 16.06 штиль 0 10 км слаб. морось 10/6 420 м
[Cb cap Ac As]
+25.7 +24.6 94 +36 +36 очень
душно
1009.2 1008.9 1
00 17.06 В 2 10 км слаб. дождь 10/6 420 м
[Cb cap Ac As]
+25.5 +24.8 96 +36 +38 очень
душно
1009.8 1009.5 2 8
03 17.06 ЮВ 3 15 км слаб. дождь 10/6 420 м
[Cb cap Ac As]
+26.0 +24.9 94 +37 +37 очень
душно
1008.4 1008.1 3
06 17.06 ЮВ 3 15 км слаб. морось {дождь} 10/6 420 м
[Cb cap Ac As]
+26.5 +25.1 92 +38 +38 очень
душно
1007.5 1007.2 0.2
09 17.06 ЮВ 3 20 км осадки на расстоянии {морось} 9/4 420 м
[Cb cap Ac trans Cs]
+26.0 +24.6 92 +37 +37 очень
душно
1009.1 1008.8 0.0
12 17.06 ЮВ 4 20 км осадки на расстоянии {морось} 10/6 420 м
[Cb cap Ac As]
+26.0 +24.6 92 +37 +37 очень
душно
1009.7 1009.4 +27.5 0.0
18 17.06 В 3 20 км слаб. морось 10/5 420 м
[Cb cap Ac As]
+24.8 +23.7 94 +34 +34 очень
душно
1008.7 1008.4 23
21 17.06 штиль 0 10 км осадки на расстоянии {ливн. осадки} 10/6 420 м
[Cb cap Ac As]
+24.4 +24.1 98 +34 +34 очень
душно
1009.7 1009.4 12
00 18.06 ЮВ 2 20 км осадки на расстоянии {ливн. осадки} 10/3 420 м
[Cb cap Ac As]
+26.9 +24.9 89 +39 +41 очень
душно
1009.8 1009.5 2 41
03 18.06 Ю 2 25 км осадки на расстоянии 9/3 420 м
[Cb cap Ac As Cs]
+28.4 +24.8 81 +41 +42 опасность
перегрева
1007.7 1007.4
06 18.06 ЮВ 2 25 км осадки на расстоянии 10/1 420 м
[Cb cap Ac As Cs]
+27.7 +23.7 79 +38 +39 очень
душно
1007.2 1006.9
09 18.06 штиль 0 25 км осадки на расстоянии 10/3 420 м
[Cb cap Ac As Cs]
+26.2 +24.7 91 +37 +37 очень
душно
1009.1 1008.8
12 18.06 штиль 0 20 км осадки на расстоянии 10/3 420 м
[Cb cap Ac As]
+25.5 +25.3 99 +37 +37 очень
душно
1010.1 1009.8 +30.0
18 18.06 СВ 1 25 км осадки на расстоянии 9/1 420 м
[Cb cap Ac trans Cs]
+25.5 +24.8 96 +36 +36 очень
душно
1008.2 1007.9
21 18.06 ЮВ 3 25 км осадки на расстоянии 8/1 420 м
[Cb cap Ac trans Cs]
+26.9 +24.4 86 +38 +38 очень
душно
1009.6 1009.3
00 19.06 ЮВ 4 25 км осадки на расстоянии 8/1 450 м
[Cb cap Ac trans Cs]
+29.0 +25.5 81 +43 +48 опасность
перегрева
1009.8 1009.5
03 19.06 Ю 3 25 км осадки на расстоянии 6/3 450 м
[Cb cap Cs]
+30.1 +25.5 76 +44 +49 опасность
перегрева
1007.2 1006.9
06 19.06 ЮВ 2 25 км осадки на расстоянии {ливн. осадки} 9/3 450 м
[Cb cap Ac trans Cs]
+28.6 +25.7 84 +42 +43 опасность
перегрева
1006.5 1006.2 0.6
09 19.06 штиль 0 30 км осадки на расстоянии 1/1 420 м
[Cb cap]
+26.5 +25.4 94 +39 +39 очень
душно
1008.2 1007.9
12 19.06 штиль 0 30 км осадки на расстоянии 1/1 420 м
[Cb cap Ci fib]
+25.5 +24.8 96 +36 +36 очень
душно
1008.4 1008.1 +31.0

 

Местоположение метеостанции Остров Таро (Соломоновы Острова): широта -6.71 долгота 156.40 высота над уровнем моря 3 м.

В архиве по умолчанию представлена погода на Острове Таро за последнюю неделю. Архивные данные за месяц целиком и за предыдущие месяцы, начиная с января 2011 года, Вы можете получить, выбрав интересующий диапазон дат из раскрывающегося списка и нажав кнопку "Ввод!".


*Определитесь, кто Вы:
робот инопланетянин человек

Внимание! Время в таблицах - всемирное. Для получения местного времени необходимо прибавить поправку, которая равна 11 ч.

Смотрите также архив погоды в соседних городах и на ближайших метеорологических станциях:

Погода в Манде (Соломоновы Острова) (204 км)
Погода в Хониаре (Соломоновы Острова) (495 км)
Погода в Хониара аэропорту (Соломоновы Острова) (502 км)
Погода в Токуа (Папуа Новая Гвинея) (520 км)
Погода в Ауки (Соломоновы Острова) (530 км)
Погода на Мисиме (Папуа Новая Гвинея) (591 км)
Погода в Кавиенге (Папуа Новая Гвинея) (772 км)
Погода в Герни (Папуа Новая Гвинея) (778 км)
Погода на Атолле Капингамаранги (Микронезия) (885 км)
Погода в Порт-Морсби (Папуа Новая Гвинея) (1055 км)

Пояснения к столбцам:

Ветер - указаны скорость ветра в м/с - средняя за 10 мин, порывы в срок и между сроками (в фигурных скобках) и направление, откуда дует ветер: С - северный, СВ - северо-восточный, В - восточный, ЮВ - юго-восточный, Ю - южный, ЮЗ - юго-западный, З - западный, СЗ - северо-западный.
Видимость - горизонтальная дальность видимости в метрах или километрах. При видимости от 1 до 10 км при отсутствии осадков обычно наблюдается дымка, при ухудшении видимости до 1 км и менее - туман. В сухую погоду видимость может ухудшаться дымом, пылью или мглою.
Явления - указаны атмосферные явления, наблюдавшиеся в срок или в последний час перед сроком; фигурными скобками обозначены явления, наблюдавшиеся между сроками (за 1-3 часа до срока); квадратными скобками обозначены град или гололедные отложения с указанием их диаметра в мм.
Облачность - указаны через наклонную черту общая и нижняя облачность в баллах и высота нижней границы облаков в метрах; квадратными скобками обозначены формы облаков: Ci - перистые, Cs - перисто-слоистые, Cc - перисто-кучевые, Ac - высококучевые, As - высокослоистые, Sc - слоисто-кучевые, Ns - слоисто-дождевые, Cu - кучевые, Cb - кучево-дождевые. Подробнее классификацию облаков см. в Атласе облаков (PDF).
T - Температура воздуха - температура, измеренная на высоте 2 м над землей.
Td - Температура точки росы - температура, при понижении до которой содержащийся в воздухе водяной пар достигнет насыщения.
f - Относительная влажность воздуха - влажноcть воздуха, измеренная на высоте 2 м над землей.
Te - Эффективная температура - температура, которую ощущает одетый по сезону человек в тени. Характеристика душности погоды. При расчете учитывается влияние влажности воздуха и скорости ветра на теплоощущения человека.
Tes - Эффективная температура на солнце - температура, которую ощущает человек, с поправкой на солнечный нагрев. Характеристика знойности погоды. Зависит от высоты солнца над горизонтом, облачности и скорости ветра. Ночью, в пасмурную погоду, а также при ветре 12 м/с и более поправка равна нулю.
P - Атмосферное давление - приведенное к уровню моря атмосферное давление.
Po - Атмосферное давление - измеренное на уровне метеостанции атмосферное давление.
Tmin - Минимальная температура - минимум температуры воздуха на высоте 2 м над землей.
Tmax - Максимальная температура - максимум температуры воздуха на высоте 2 м над землей.
R - Количество осадков - Количество выпавших осадков за период времени, мм. При наведении курсора мыши на число - период времени, за который выпало указанное количество осадков.
R24 - Количество осадков - Количество выпавших осадков за 24 часа, мм.
S - Снежный покров - Высота снежного покрова, см. При наведении курсора мыши на число - состояние снежного покрова и степень покрытия местности в баллах.